Location: St. Louis
(38.6270°N, 90.1994°W)
Time: 14:20:53
(UTC-06:00)

Transit 4A - Pass Details

Date: 30 November 2021
Orbit: 864 x 980 km, 66.8° (Epoch: 16 January)

Event Time Altitude Azimuth Distance (km) Brightness Sun altitude
Exits shadow 07:03:11 - 310° (NW) 3,688 10.4 -0.1°
Rises 07:03:21 0° 309° (NW) 3,641 10.3 -0.1°
Reaches altitude 10° 07:07:32 10° 283° (WNW) 2,709 9.7 0.6°
Maximum altitude 07:10:05 13° 259° (WSW) 2,522 9.7 1.1°
Drops below altitude 10° 07:12:39 10° 235° (SW) 2,719 10.1 1.5°
Sets 07:16:55 0° 208° (SSW) 3,667 11.1 2.2°
